Weather History for KSPD - October, 2013

Change the Weather History Date:

Thursday, October 31, 2013

  Actual Average Record
Temperature  
Mean Temperature 48 °F -  
Max Temperature 62 °F 64 °F 84 °F (2001)
Min Temperature 34 °F 33 °F 19 °F (2006)
Degree Days  
Heating Degree Days 17 17  
Month to date heating degree days 393 354  
Since 1 July heating degree days 421 445  
Cooling Degree Days 0 0  
Month to date cooling degree days 2 11  
Year to date cooling degree days 1358 1028  
Moisture  
Dew Point 29 °F    
Average Humidity 58    
Maximum Humidity 96    
Minimum Humidity 19    
Precipitation  
Precipitation 0.03 in 0.05 in 1.34 in (1998)
Month to date precipitation 0.26 1.39  
Year to date precipitation 13.50 16.46  
Sea Level Pressure  
Sea Level Pressure 29.75 in    
Wind  
Wind Speed 8 mph (NW)    
Max Wind Speed 20 mph    
Max Gust Speed 24 mph    
T = Trace of Precipitation, MM = Missing Value Source: NWS Daily Summary

Daily Weather History Graph

Daily Weather History Graph

Search for Another Location

Airport or City:

Trip Planner

Search our weather history database for the weather conditions in past years. The results will help you decide how hot, cold, wet, or windy it might be!

Date:

Astronomy

Oct. 31, 2013 Rise Set
Actual Time 7:14 AM MDT 5:53 PM MDT
Civil Twilight 6:47 AM MDT 6:20 PM MDT
Nautical Twilight 6:16 AM MDT 6:50 PM MDT
Astronomical Twilight 5:46 AM MDT 7:21 PM MDT
Moon 4:09 AM MDT (10/31) 4:09 PM MDT (10/31)
Length of Visible Light 11h 32m
Length of Day
10h 39m
Waning Crescent, 9% of the Moon is Illuminated
Oct 31
Waning Crescent
Nov 3
New
Nov 9
First Quarter
Nov 17
Full
Nov 25
Last Quarter

Hourly Weather History & Observations

Time (MDT) Temp. Windchill Dew Point Humidity Pressure Visibility Wind Dir Wind Speed Gust Speed Precip Events Conditions
12:56 AM 43.0 °F 37.7 °F 41.0 °F 93% 29.65 in - North 9.2 mph - N/A   Unknown
1:56 AM 44.1 °F 36.2 °F 41.0 °F 89% 29.63 in - North 18.4 mph - N/A   Unknown
2:56 AM 43.0 °F 36.8 °F 39.0 °F 86% 29.66 in - NNW 11.5 mph - 0.01 in   Unknown
3:56 AM 43.0 °F 37.7 °F 41.0 °F 93% 29.68 in - NW 9.2 mph - 0.01 in   Unknown
4:56 AM 41.0 °F 34.7 °F 37.9 °F 89% 29.71 in - NNW 10.4 mph - 0.01 in   Unknown
5:56 AM 37.9 °F 32.7 °F 36.0 °F 93% 29.79 in - WNW 6.9 mph - N/A   Unknown
6:56 AM 35.1 °F 28.6 °F 33.1 °F 92% 29.82 in - WNW 8.1 mph - N/A   Unknown
7:56 AM 37.0 °F 32.4 °F 33.1 °F 86% 29.82 in - WNW 5.8 mph - N/A   Unknown
8:56 AM 44.1 °F 39.0 °F 37.9 °F 79% 29.82 in - WNW 9.2 mph - N/A   Unknown
9:56 AM 50.0 °F - 37.0 °F 61% 29.81 in - West 11.5 mph - N/A   Unknown
10:56 AM 53.1 °F - 30.0 °F 41% 29.81 in - West 9.2 mph - N/A   Unknown
11:56 AM 55.9 °F - 25.0 °F 30% 29.80 in - West 10.4 mph 18.4 mph N/A   Unknown
12:56 PM 57.9 °F - 21.0 °F 24% 29.76 in - NW 10.4 mph - N/A   Unknown
1:56 PM 60.1 °F - 19.0 °F 20% 29.71 in - NW 11.5 mph - N/A   Unknown
2:56 PM 61.0 °F - 21.0 °F 21% 29.70 in - NW 9.2 mph - N/A   Unknown
3:56 PM 62.1 °F - 19.9 °F 20% 29.68 in - WNW 5.8 mph - N/A   Unknown
4:56 PM 61.0 °F - 18.0 °F 19% 29.69 in - West 4.6 mph - N/A   Unknown
5:56 PM 54.0 °F - 23.0 °F 30% 29.72 in - Calm Calm - N/A   Unknown
6:56 PM 48.9 °F - 23.0 °F 36% 29.75 in - SE 3.5 mph - N/A   Unknown
7:56 PM 45.0 °F - 23.0 °F 42% 29.77 in - Calm Calm - N/A   Unknown
8:56 PM 37.9 °F 35.5 °F 25.0 °F 60% 29.80 in - Variable 3.5 mph - N/A   Unknown
9:56 PM 39.0 °F 32.8 °F 25.0 °F 57% 29.79 in - ENE 9.2 mph - N/A   Unknown
10:56 PM 39.9 °F 35.1 °F 25.0 °F 55% 29.80 in - North 6.9 mph - N/A   Unknown
11:56 PM 35.1 °F 28.6 °F 25.0 °F 67% 29.83 in - NW 8.1 mph - N/A   Unknown